TimeEST,TemperatureF,Dew PointF,Humidity,Sea Level PressureIn,VisibilityMPH,Wind Direction,Wind SpeedMPH,Gust SpeedMPH,PrecipitationIn,Events,Conditions,WindDirDegrees,DateUTC
12:54 AM,32.0,24.1,73,29.91,10.0,WSW,4.6,-,N/A,,Clear,250,2013-03-02 05:54:00
1:54 AM,28.0,24.1,85,29.91,10.0,NW,3.5,-,N/A,,Clear,320,2013-03-02 06:54:00
2:54 AM,28.0,24.1,85,29.90,10.0,WSW,3.5,-,N/A,,Clear,250,2013-03-02 07:54:00
3:54 AM,30.0,23.0,75,29.88,10.0,NNW,3.5,-,N/A,,Clear,340,2013-03-02 08:54:00
4:54 AM,30.9,21.9,69,29.87,10.0,Calm,Calm,-,N/A,,Clear,0,2013-03-02 09:54:00
5:54 AM,30.9,24.1,76,29.88,10.0,Calm,Calm,-,N/A,,Overcast,0,2013-03-02 10:54:00
6:54 AM,30.0,25.0,82,29.89,10.0,WSW,3.5,-,N/A,,Overcast,240,2013-03-02 11:54:00
7:54 AM,30.9,28.0,89,29.90,10.0,Calm,Calm,-,N/A,,Overcast,0,2013-03-02 12:54:00
8:54 AM,37.0,27.0,67,29.90,10.0,Calm,Calm,-,N/A,,Overcast,0,2013-03-02 13:54:00
9:54 AM,42.1,24.1,49,29.88,10.0,Variable,6.9,-,N/A,,Clear,0,2013-03-02 14:54:00
10:54 AM,44.1,24.1,45,29.87,10.0,North,9.2,17.3,N/A,,Partly Cloudy,360,2013-03-02 15:54:00
11:54 AM,44.1,23.0,43,29.86,10.0,NNW,12.7,-,N/A,,Mostly Cloudy,330,2013-03-02 16:54:00
12:54 PM,44.1,24.1,45,29.84,10.0,WNW,9.2,16.1,N/A,,Overcast,290,2013-03-02 17:54:00
1:54 PM,45.0,24.1,44,29.82,10.0,NW,8.1,-,N/A,,Overcast,310,2013-03-02 18:54:00
2:54 PM,45.0,24.1,44,29.82,10.0,WSW,6.9,-,N/A,,Overcast,250,2013-03-02 19:54:00
3:54 PM,46.0,24.1,42,29.81,10.0,WNW,8.1,-,N/A,,Overcast,300,2013-03-02 20:54:00
4:54 PM,44.1,23.0,43,29.82,10.0,NW,9.2,-,N/A,,Overcast,320,2013-03-02 21:54:00
5:54 PM,43.0,24.1,47,29.84,10.0,North,4.6,-,N/A,,Overcast,360,2013-03-02 22:54:00
6:54 PM,39.0,21.9,50,29.88,10.0,North,9.2,16.1,N/A,,Mostly Cloudy,350,2013-03-02 23:54:00
7:54 PM,36.0,21.0,55,29.89,10.0,NNW,8.1,-,N/A,,Clear,340,2013-03-03 00:54:00
8:54 PM,34.0,18.0,52,29.91,10.0,NNW,9.2,-,N/A,,Clear,330,2013-03-03 01:54:00
9:54 PM,33.1,17.1,52,29.92,10.0,NW,6.9,-,N/A,,Clear,320,2013-03-03 02:54:00
10:54 PM,33.1,16.0,50,29.93,10.0,NW,9.2,-,N/A,,Clear,310,2013-03-03 03:54:00
11:54 PM,32.0,16.0,52,29.92,10.0,NW,5.8,-,N/A,,Clear,320,2013-03-03 04:54:00